Disclaimer

Please do not use the information listed here in-flight or in-navigation, as they are not provided to us by the airports but are provided by volunteers, so they might be outdated.

Search


Regions


Airport information page

No radio frequency information is available.

Airport informations:
Latitude: 22° 29' 53.43" S
Longitude: 068° 54' 12.87" W
Elevation: 7543 feet - 2299 meters
Operating hours: Remarks
Operating agency: Civil government, landing fees and diplomatic clearance may be required
Timezone: UTC-4(-3DT)
Fuel: Aviation Gasoline (AVGAS), octane unknown.

Jet fuel avaiable but type is unknown.

Runway information:
10/28 - 9478 x 98 feet< - >2889 x 30 meters

Recent METARs:
SCCF 200000Z 28023KT CAVOK 21/02 Q1025
SCCF 200000Z 28023KT CAVOK 21/02 Q1025
SCCF 200100Z 27010KT CAVOK 19/02 Q1026

Airport on the map: